LRCL Weather Reports


Display with metric or nautical units.
time (UTC)temp
F
wind
direction
speed
MPH
gust
MPH
rain 1hr
in
rain 24hr
in
rain mn
in
humidity
%
barometer
mb
20260506084808 72 80 8.0 0.0 0.00 0.00 0.00 41 1013.0
20260506083308 72 80 8.0 0.0 0.00 0.00 0.00 41 1013.0
20260506080308 70 60 6.0 0.0 0.00 0.00 0.00 43 1013.0
20260506073308 64 60 5.0 0.0 0.00 0.00 0.00 49 1014.0
20260506071808 63 50 3.0 0.0 0.00 0.00 0.00 49 1014.0
20260506070308 63 50 3.0 0.0 0.00 0.00 0.00 49 1014.0
20260506061808 55 90 5.0 0.0 0.00 0.00 0.00 59 1014.0
20260506060309 55 90 5.0 0.0 0.00 0.00 0.00 59 1014.0
20260506050322 50 70 2.0 0.0 0.00 0.00 0.00 71 1014.0
20260506044823 46 70 2.0 0.0 0.00 0.00 0.00 76 1014.0
20260506043312 46 70 2.0 0.0 0.00 0.00 0.00 76 1014.0
20260506041808 45 90 3.0 0.0 0.00 0.00 0.00 81 1014.0
20260506040308 45 90 3.0 0.0 0.00 0.00 0.00 81 1014.0
20260506034808 43 70 1.0 0.0 0.00 0.00 0.00 87 1013.0
20260506033308 43 70 1.0 0.0 0.00 0.00 0.00 87 1013.0
20260506031808 43 0 0.0 0.0 0.00 0.00 0.00 87 1013.0
20260506030307 43 0 0.0 0.0 0.00 0.00 0.00 87 1013.0
20260506024808 45 0 0.0 0.0 0.00 0.00 0.00 87 1013.0
20260506023308 45 0 0.0 0.0 0.00 0.00 0.00 87 1013.0
20260506021808 45 0 0.0 0.0 0.00 0.00 0.00 81 1013.0
20260506020308 45 0 0.0 0.0 0.00 0.00 0.00 81 1013.0
20260506014807 46 0 0.0 0.0 0.00 0.00 0.00 76 1013.0
20260506013308 46 0 0.0 0.0 0.00 0.00 0.00 76 1013.0
20260506011808 46 100 5.0 0.0 0.00 0.00 0.00 71 1013.0
20260506010308 46 100 5.0 0.0 0.00 0.00 0.00 71 1013.0
20260506004808 48 0 0.0 0.0 0.00 0.00 0.00 76 1013.0
20260506003423 48 0 0.0 0.0 0.00 0.00 0.00 76 1013.0
20260506001808 46 1.0 0.0 0.00 0.00 0.00 76 1013.0
20260506000309 46 1.0 0.0 0.00 0.00 0.00 76 1013.0
20260505234808 52 240 2.0 0.0 0.00 0.00 0.00 62 1013.0
20260505233307 52 240 2.0 0.0 0.00 0.00 0.00 62 1013.0
20260505231808 48 250 5.0 0.0 0.00 0.00 0.00 66 1013.0
20260505230308 48 250 5.0 0.0 0.00 0.00 0.00 66 1013.0
20260505224808 50 240 3.0 0.0 0.00 0.00 0.00 62 1013.0
20260505223308 50 240 3.0 0.0 0.00 0.00 0.00 62 1013.0
20260505221805 52 260 7.0 0.0 0.00 0.00 0.00 58 1013.0
20260505220308 52 260 7.0 0.0 0.00 0.00 0.00 58 1013.0
20260505214809 54 250 5.0 0.0 0.00 0.00 0.00 58 1013.0
20260505213308 54 250 5.0 0.0 0.00 0.00 0.00 58 1013.0
20260505211807 54 280 5.0 0.0 0.00 0.00 0.00 58 1012.0
20260505210308 54 280 5.0 0.0 0.00 0.00 0.00 58 1012.0
20260505204810 55 260 3.0 0.0 0.00 0.00 0.00 55 1012.0
20260505203307 55 260 3.0 0.0 0.00 0.00 0.00 55 1012.0
20260505201839 54 270 6.0 0.0 0.00 0.00 0.00 54 1012.0
20260505200308 54 270 6.0 0.0 0.00 0.00 0.00 54 1012.0
20260505194808 55 0 0.0 0.0 0.00 0.00 0.00 55 1012.0
20260505193308 55 0 0.0 0.0 0.00 0.00 0.00 55 1012.0
20260505191808 59 2.0 0.0 0.00 0.00 0.00 55 1012.0
20260505190307 59 2.0 0.0 0.00 0.00 0.00 55 1012.0
20260505184808 61 1.0 0.0 0.00 0.00 0.00 42 1012.0
20260505183308 61 1.0 0.0 0.00 0.00 0.00 42 1012.0
20260505181808 63 2.0 0.0 0.00 0.00 0.00 42 1012.0
20260505180308 63 2.0 0.0 0.00 0.00 0.00 42 1012.0
20260505174805 68 0 0.0 0.0 0.00 0.00 0.00 30 1011.0
20260505173308 68 0 0.0 0.0 0.00 0.00 0.00 30 1011.0
20260505171808 75 130 3.0 0.0 0.00 0.00 0.00 22 1011.0
20260505170308 75 130 3.0 0.0 0.00 0.00 0.00 22 1011.0
20260505164808 77 140 6.0 0.0 0.00 0.00 0.00 19 1011.0
20260505163308 77 140 6.0 0.0 0.00 0.00 0.00 19 1011.0
20260505161808 77 150 6.0 0.0 0.00 0.00 0.00 21 1012.0
20260505160308 77 150 6.0 0.0 0.00 0.00 0.00 21 1012.0
20260505153308 79 140 6.0 0.0 0.00 0.00 0.00 18 1012.0
20260505151816 79 120 8.0 0.0 0.00 0.00 0.00 16 1012.0
20260505150308 79 120 8.0 0.0 0.00 0.00 0.00 16 1012.0
20260505140307 79 160 6.0 0.0 0.00 0.00 0.00 18 1013.0
20260505130308 79 130 8.0 0.0 0.00 0.00 0.00 21 1013.0
20260505124808 79 120 8.0 0.0 0.00 0.00 0.00 20 1013.0
20260505123308 79 120 8.0 0.0 0.00 0.00 0.00 20 1013.0
20260505121808 79 110 7.0 0.0 0.00 0.00 0.00 20 1014.0
20260505120312 77 120 6.0 0.0 0.00 0.00 0.00 26 1014.0
20260505114815 77 120 6.0 0.0 0.00 0.00 0.00 26 1014.0
20260505113338 77 120 6.0 0.0 0.00 0.00 0.00 26 1014.0
20260505111808 77 80 6.0 0.0 0.00 0.00 0.00 26 1015.0
20260505110308 77 80 6.0 0.0 0.00 0.00 0.00 26 1015.0
20260505101809 75 100 5.0 0.0 0.00 0.00 0.00 27 1015.0
20260505100308 75 100 5.0 0.0 0.00 0.00 0.00 27 1015.0
20260505094809 73 120 6.0 0.0 0.00 0.00 0.00 29 1015.0
20260505093308 73 120 6.0 0.0 0.00 0.00 0.00 29 1015.0
20260505091808 72 60 6.0 0.0 0.00 0.00 0.00 27 1016.0
20260505090308 72 60 6.0 0.0 0.00 0.00 0.00 27 1016.0